Weather Roundup
Issued by NWS Springfield, MO

Home | Current Version | Previous Version | Text Only | Print | Product List | Glossary On
Versions: 1 2 3 4 5 6 7 8 9 10 11 12 13 14 15 16 17 18 19 20 21 22 23 24 25 26 27 28 29 30 31 32 33 34 35 36 37 38 39 40 41 42 43 44 45 46 47 48 49 50
000
NZUS99 KSGF 180057
HRRSGF

HOURLY WEATHER
NATIONAL WEATHER SERVICE SPRINGFIELD MO
700 PM CST WED JAN 17 2018

......SGF CWA......

CITY           SKY/WX    TMP DP  RH WIND       PRES   REMARKS
SPRINGFIELD    CLOUDY    11   4  73 CALM      30.53S
JOPLIN         CLOUDY    17   9  70 CALM      30.57R
WEST PLAINS    CLOUDY    17   6  62 SW3       30.54F
ROLLA          CLOUDY    13   6  74 SW7       30.52F WCI   3
BRANSON        CLEAR     16   9  73 CALM      30.55S

......SURROUNDING SGF CWA......

CITY           SKY/WX    TMP DP  RH WIND       PRES   REMARKS
CHANUTE          N/A     16  10  77 SE7       30.53F WCI   6
PARSONS        CLOUDY    15  10  80 CALM      30.55F
COFFEYVILLE    CLOUDY    20  10  65 S6        30.55F WCI  12
EMPORIA        CLOUDY    18  12  77 S8        30.48S WCI   8
HARRISON AR    CLOUDY    21  10  62 CALM      30.54S

......KANSAS AND MISSOURI......

CITY           SKY/WX    TMP DP  RH WIND       PRES   REMARKS
KANSAS CTY INT CLOUDY    19   9  65 SW13      30.47F WCI   6
SEDALIA        CLOUDY    18  11  74 SW5       30.53S WCI  11
ST JOSEPH      CLOUDY    19  11  70 S10       30.47F WCI   7
ST LOUIS       CLOUDY    20  10  65 W3        30.55F
WICHITA        CLOUDY    23   8  52 S9        30.46S WCI  13
TOPEKA         CLOUDY    22  13  68 S6        30.48F WCI  14
OLATHE         CLOUDY    16   9  74 S6        30.49F WCI   7

......TENNESSEE......

CITY           SKY/WX    TMP DP  RH WIND       PRES   REMARKS
MEMPHIS        NOT AVBL
NASHVILLE      FAIR      16   7  67 N6        30.59F WCI   7

......ARKANSAS.......

CITY           SKY/WX    TMP DP  RH WIND       PRES   REMARKS
FAYETTEVILLE   CLOUDY    23   7  50 SW5       30.55S WCI  17
FT SMITH       CLOUDY    25   9  50 N5        30.62F WCI  19
LITTLE ROCK    FAIR      18  11  74 S3        30.66F

......OKLAHOMA.......

CITY           SKY/WX    TMP DP  RH WIND       PRES   REMARKS
TULSA          CLOUDY    23   6  48 SE6       30.57S WCI  16
MCALESTER      CLOUDY    21   6  52 CALM      30.59S
OKLAHOMA CITY  CLOUDY    23   5  46 S8        30.51S WCI  14

......IOWA............

CITY           SKY/WX    TMP DP  RH WIND       PRES   REMARKS
DES MOINES     NOT AVBL
QUAD CITIES    FAIR      19  10  68 SW13      30.38F WCI   6

......ILLINOIS........

CITY           SKY/WX    TMP DP  RH WIND       PRES   REMARKS
QUINCY         CLOUDY    14   7  73 SW8       30.48F WCI   3
CHICAGO        FAIR      18   8  65 SW18G26   30.30F WCI   2




USA.gov is the U.S. government's official web portal to all federal, state and local government web resources and services.